Home > Time Zones > World Clock > Weather > Iran > Kerman > Past weeks

Flag for Iran Weather past 2 weeks in Kerman, Iran

Now
81 °F

Sunny.


Feels Like: 79 °F
Forecast: 60 / 91 °F
Wind: 12 mph from North

Location: Kerman Airport

Current Time: May 29, 2015 at 9:05:02 PM

Latest Report: May 29, 2015 at 8:30 PM


Visibility: 10 mi

Pressure: 30.09 "Hg

Humidity: 9%

Dew point: 16 °F

Location of KermanLocation

Historic Weather in Kerman — Graph

°F

Kerman temperature yesterday

Maximum temperature yesterday: 86 °F (at 3:30 PM)
Minimum temperature yesterday: 61 °F (at 4:30 AM)
Average temperature yesterday: 75 °F

Past Weeks' High & Low Weather Summary

 TemperatureHumidityPressure
High97 °F (May 15, 4:30 PM)60% (May 16, 10:30 AM)30.45 "Hg (May 16, 10:30 AM)
Low52 °F (May 19, 5:30 AM)2% (May 17, 4:30 PM)29.95 "Hg (May 26, 3:20 PM)
Average78 °F15%30.08 "Hg
* Reported May 14 7:30 PM — May 29 7:30 PM, Kerman, Weather by CustomWeather, © 2015

Note: Actual official high and low records may vary slightly from our data, if they occured in-between our weather recording intervals... More about our weather records

Advertising

Kerman weather history for previous 24 hours

 ConditionsComfort  
Time TempWeatherWind HumidityBarometerVisibility
7:30 PM
Fri, May 29
86 °FSunny.14 mph7%30.09 "Hg10 mi
6:30 PM88 °FPassing clouds.16 mph9%30.07 "HgN/A
6:00 PM90 °FPassing clouds.9 mph8%30.07 "HgN/A
5:30 PM90 °FPassing clouds.9 mph8%30.07 "HgN/A
5:00 PM91 °FPassing clouds.7 mph8%30.07 "HgN/A
4:30 PM91 °FPassing clouds.7 mph8%30.07 "HgN/A
3:30 PM91 °FPassing clouds.12 mph8%30.07 "HgN/A
2:30 PM90 °FPassing clouds.12 mph9%30.07 "HgN/A
2:00 PM90 °FPassing clouds.9 mph8%30.09 "HgN/A
1:30 PM88 °FPassing clouds.12 mph9%30.09 "HgN/A
1:00 PM88 °FPassing clouds.9 mph9%30.09 "HgN/A
12:30 PM86 °FPassing clouds.7 mph9%30.12 "HgN/A
11:30 AM86 °FPassing clouds.5 mph8%30.12 "HgN/A
11:00 AM86 °FPassing clouds.7 mph10%30.12 "HgN/A
10:30 AM84 °FPassing clouds.5 mph12%30.12 "HgN/A
10:00 AM82 °FSunny.7 mph14%30.12 "Hg10 mi
9:30 AM79 °FSunny.7 mph17%30.12 "Hg10 mi
8:30 AM73 °FSunny.5 mph20%30.12 "Hg10 mi
7:30 AM66 °FSunny.5 mph28%30.09 "Hg10 mi
6:30 AM59 °FClear.5 mph34%30.07 "Hg10 mi
5:30 AM61 °FClear.No wind29%30.04 "Hg10 mi
4:30 AM59 °FClear.5 mph31%30.04 "Hg10 mi
3:30 AM59 °FClear.5 mph31%30.04 "Hg10 mi
2:30 AM66 °FClear.No wind22%30.04 "Hg10 mi
1:30 AM66 °FClear.7 mph22%30.04 "Hg10 mi
12:30 AM70 °FClear.9 mph20%30.04 "Hg10 mi
11:30 PM
Thu, May 28
73 °FClear.7 mph17%30.04 "Hg10 mi
10:30 PM73 °FClear.7 mph17%30.04 "Hg10 mi
9:30 PM77 °FPassing clouds.14 mph11%30.04 "HgN/A
Weather by CustomWeather, © 2015

See weather overviewHow to use our weather pages